Regional Weather Roundup
Issued by NWS State College, PA

Home | Current Version | Previous Version | Text Only | Print | Product List | Glossary Off
Versions: 1 2 3 4 5 6 7 8 9 10 11 12 13 14 15 16 17 18 19 20 21 22 23 24 25 26 27 28 29 30 31 32 33 34 35 36 37 38 39 40 41 42 43 44 45 46 47 48 49 50

000
ASUS41 KCTP 262110
RWRCTP

REGIONAL WEATHER ROUNDUP
NATIONAL WEATHER SERVICE STATE COLLEGE PA
400 PM EST MON JAN 26 2015

Note: "fair" indicates few or no clouds below 12,000 feet with no
significant weather and/or obstructions to visibility.

* = STATION THAT DOES NOT REPORT PRECIPITATION /E.G. RAIN...SNOW...ETC/
    THUNDER OR FOG.

PAZ002>004-007>009-013>016-020>023-029>032-262200-
WESTERN PENNSYLVANIA

CITY           SKY/WX    TMP DP  RH WIND       PRES   REMARKS
ERIE           CLOUDY    21  16  81 NE14      29.82R WCI   8
MEADVILLE      LGT SNOW  23  16  74 N7        29.74R WCI  15
FRANKLIN*      CLOUDY    23  18  80 N3        29.73S
NEW CASTLE     LGT SNOW  23  19  86 NW10      29.77R VSB 1   WCI  12
BEAVER COUNTY  LGT SNOW  25  25 100 NW7       29.73R
BUTLER*        CLOUDY    25  19  80 N6        29.73R
PITTSBURGH INT LGT SNOW  26  22  84 N14       29.71R WCI  14
PITTSBURGH     LGT SNOW  26  22  84 NW9       29.68R VSB 3/4
INDIANA*       CLOUDY    25  21  86 E10       29.73R FOG     WCI  15
LATROBE        LGT SNOW  32  30  93 NE7       29.70R
WASHINGTON CO* CLOUDY    27  21  80 CALM      29.72R
$$

PAZ004>006-010>012-017>019-024>028-033>037-041-042-045-046-049>053-262200-
CENTRAL PENNSYLVANIA

CITY           SKY/WX    TMP DP  RH WIND       PRES   REMARKS
BRADFORD       LGT SNOW  20  14  77 E7        29.69S WCI  11
DUBOIS         CLOUDY    21  16  81 E10       29.69R HAZE    WCI  10
CLEARFIELD     LGT SNOW  20  16  84 NE7       29.73R FOG     WCI  11
JOHNSTOWN      LGT SNOW  23  19  85 E3        29.62S VSB 3/4
ALTOONA        SNOW      21  18  88 N9        29.71R VSB 1/2 WCI  11
STATE COLLEGE  LGT SNOW  21  18  86 NE9       29.75S FOG     WCI  11
WILLIAMSPORT   LGT SNOW  25  20  81 CALM      29.82S
SELINSGROVE    LGT SNOW  26  21  81 N7        29.81S
FT INDIANTOWN  CLOUDY    25  19  76 NE8       29.78F
CAPITAL CITY   CLOUDY    25  18  74 NE9       29.78F
HARRISBURG     FLURRIES  24  18  77 NE8       29.78F
YORK           LGT SNOW  24  19  81 N8        29.75F
$$

PAZ038>040-043-044-047-048-054-055-060>062-067>071-262200-
EASTERN PENNSYLVANIA

CITY           SKY/WX    TMP DP  RH WIND       PRES   REMARKS
SCRANTON       LGT SNOW  22  14  71 E9        29.81S WCI  12
MOUNT POCONO   HVY SNOW  19  14  81 E15       29.74R VSB 1/4 WCI   5
ALLENTOWN      LGT SNOW  19  14  79 NE16      29.82F WCI   5
QUAKERTOWN*    NOT AVBL
READING        CLOUDY    22  15  75 NE13      29.79S WCI  10
LANCASTER      LGT SNOW  23  18  81 NE14      29.76F VSB 3/4 WCI  11
COATESVILLE    LGT SNOW  25  23  93 NE7G16    29.73S
POTTSTOWN      LGT SNOW  25  18  74 NE10G25   29.79F WCI  15
BLUE BELL      CLOUDY    27  21  80 NE8       29.77F
DOYLESTOWN     LGT SNOW  21  18  88 NE13G22   29.78F FOG     WCI   9
WILLOW GROVE   NOT AVBL
NORTH PHILA    LGT SNOW  27  19  72 NE16G24   29.81F WCI  15
PHILADELPHIA   FLURRIES  27  21  78 NE24G31   29.78R WCI  12
$$



USA.gov is the U.S. government's official web portal to all federal, state and local government web resources and services.